IRIDIUM 81 [B]

Last updated on Thu Jun 14 2018 00:20:17 GMT+0000 (Coordinated Universal Time)

1 25468U 98051B 18164.44385344 .00000188 00000-0 38460-4 0 9995 2 25468 86.4241 230.8174 0023025 6.4879 353.6622 14.55010245 34789
UTC large
Height (km)
Speed (km/s)
/
Latitude / Longitude
Inclination (degrees)
Orbital Period (minutes)
Azimuth
Elevation
Range (km)
Doppler Factor

Next 0 passes for location: London (51.5072 / 0.1276)

Sorry there are no passes over London.